"Period start","avg(HW err(1)/warn(2) (#))","avg(Visibility (m))","avg(Weather code (#))","avg(Precip intensity (mm/h))","min(HW err(1)/warn(2) (#))","max(HW err(1)/warn(2) (#))","std(HW err(1)/warn(2) (#))","med(HW err(1)/warn(2) (#))","min(Visibility (m))","max(Visibility (m))","std(Visibility (m))","med(Visibility (m))","min(Weather code (#))","max(Weather code (#))","std(Weather code (#))","med(Weather code (#))","min(Precip intensity (mm/h))","max(Precip intensity (mm/h))","std(Precip intensity (mm/h))","med(Precip intensity (mm/h))"
2014-10-28 00:00:00,2,48124,15,0.00,2,2,0,2,41638,50000,2725,49855,0,77,31,0,0.00,0.00,0.00,0.00
2014-10-28 00:10:00,2,50000,0,0.00,2,2,0,2,50000,50000,0,50000,0,0,0,0,0.00,0.00,0.00,0.00
2014-10-28 00:20:00,2,42101,0,0.00,2,2,0,2,28018,50000,7882,45210,0,0,0,0,0.00,0.00,0.00,0.00
2014-10-28 00:30:00,2,50000,0,0.00,2,2,0,2,50000,50000,0,50000,0,0,0,0,0.00,0.00,0.00,0.00
2014-10-28 00:40:00,2,50000,0,0.00,2,2,0,2,50000,50000,0,50000,0,0,0,0,0.00,0.00,0.00,0.00
2014-10-28 00:50:00,2,49764,0,0.00,2,2,0,2,47636,50000,709,50000,0,0,0,0,0.00,0.00,0.00,0.00
2014-10-28 01:00:00,2,49696,0,0.00,2,2,0,2,46960,50000,912,50000,0,0,0,0,0.00,0.00,0.00,0.00
2014-10-28 01:10:00,2,49229,0,0.00,2,2,0,2,44973,50000,1629,50000,0,0,0,0,0.00,0.00,0.00,0.00
2014-10-28 01:20:00,2,49926,0,0.00,2,2,0,2,49257,50000,223,50000,0,0,0,0,0.00,0.00,0.00,0.00
2014-10-28 01:30:00,2,49645,0,0.00,2,2,0,2,46601,50000,1016,50000,0,0,0,0,0.00,0.00,0.00,0.00
2014-10-28 01:40:00,2,50000,0,0.00,2,2,0,2,50000,50000,0,50000,0,0,0,0,0.00,0.00,0.00,0.00
2014-10-28 01:50:00,2,50000,0,0.00,2,2,0,2,50000,50000,0,50000,0,0,0,0,0.00,0.00,0.00,0.00
2014-10-28 02:00:00,2,50000,0,0.00,2,2,0,2,50000,50000,0,50000,0,0,0,0,0.00,0.00,0.00,0.00
2014-10-28 02:10:00,2,48096,0,0.00,2,2,0,2,41969,50000,2453,49100,0,0,0,0,0.00,0.00,0.00,0.00
2014-10-28 02:20:00,2,34747,0,0.00,2,2,0,2,24522,46677,6958,34217,0,0,0,0,0.00,0.00,0.00,0.00
2014-10-28 02:30:00,2,40304,0,0.00,2,2,0,2,30840,50000,7641,38650,0,0,0,0,0.00,0.00,0.00,0.00
2014-10-28 02:40:00,2,46920,0,0.00,2,2,0,2,34167,50000,4956,49708,0,0,0,0,0.00,0.00,0.00,0.00
2014-10-28 02:50:00,2,48947,0,0.00,2,2,0,2,45087,50000,1726,50000,0,0,0,0,0.00,0.00,0.00,0.00
2014-10-28 03:00:00,2,49932,0,0.00,2,2,0,2,49324,50000,203,50000,0,0,0,0,0.00,0.00,0.00,0.00
2014-10-28 03:10:00,2,49567,0,0.00,2,2,0,2,46614,50000,1024,50000,0,0,0,0,0.00,0.00,0.00,0.00
2014-10-28 03:20:00,2,48547,0,0.00,2,2,0,2,44765,50000,1927,50000,0,0,0,0,0.00,0.00,0.00,0.00
2014-10-28 03:30:00,2,28926,30,0.00,2,2,0,2,18790,41280,5977,27822,0,78,37,0,0.00,0.00,0.00,0.00
2014-10-28 03:40:00,2,29190,78,0.00,2,2,0,2,21578,32922,3420,30356,78,78,0,78,0.00,0.00,0.00,0.00
2014-10-28 03:50:00,2,32574,8,0.00,2,2,0,2,20970,40178,6140,33114,0,78,23,0,0.00,0.00,0.00,0.00
2014-10-28 04:00:00,2,32496,0,0.00,2,2,0,2,25040,43540,6191,29758,0,0,0,0,0.00,0.00,0.00,0.00
2014-10-28 04:10:00,2,28844,0,0.00,2,2,0,2,20103,38231,6263,28368,0,0,0,0,0.00,0.00,0.00,0.00
2014-10-28 04:20:00,2,24172,0,0.00,2,2,0,2,17913,30971,3748,23334,0,0,0,0,0.00,0.00,0.00,0.00
2014-10-28 04:30:00,2,33256,0,0.00,2,2,0,2,27038,40913,4700,32774,0,0,0,0,0.00,0.00,0.00,0.00
2014-10-28 04:40:00,2,41312,0,0.00,2,2,0,2,33278,50000,5523,39793,0,0,0,0,0.00,0.00,0.00,0.00
2014-10-28 04:50:00,2,49760,0,0.00,2,2,0,2,48470,50000,503,50000,0,0,0,0,0.00,0.00,0.00,0.00
2014-10-28 05:00:00,2,49939,0,0.00,2,2,0,2,49387,50000,184,50000,0,0,0,0,0.00,0.00,0.00,0.00
2014-10-28 05:10:00,2,50000,0,0.00,2,2,0,2,50000,50000,0,50000,0,0,0,0,0.00,0.00,0.00,0.00
2014-10-28 05:20:00,2,50000,0,0.00,2,2,0,2,50000,50000,0,50000,0,0,0,0,0.00,0.00,0.00,0.00
2014-10-28 05:30:00,2,50000,0,0.00,2,2,0,2,50000,50000,0,50000,0,0,0,0,0.00,0.00,0.00,0.00
2014-10-28 05:40:00,2,49975,0,0.00,2,2,0,2,49746,50000,76,50000,0,0,0,0,0.00,0.00,0.00,0.00
2014-10-28 05:50:00,2,50000,0,0.00,2,2,0,2,50000,50000,0,50000,0,0,0,0,0.00,0.00,0.00,0.00
2014-10-28 06:00:00,2,49909,0,0.00,2,2,0,2,49093,50000,272,50000,0,0,0,0,0.00,0.00,0.00,0.00
2014-10-28 06:10:00,2,50000,0,0.00,2,2,0,2,50000,50000,0,50000,0,0,0,0,0.00,0.00,0.00,0.00
2014-10-28 06:20:00,2,50000,0,0.00,2,2,0,2,50000,50000,0,50000,0,0,0,0,0.00,0.00,0.00,0.00
2014-10-28 06:30:00,2,50000,0,0.00,2,2,0,2,50000,50000,0,50000,0,0,0,0,0.00,0.00,0.00,0.00
2014-10-28 06:40:00,2,43909,30,0.00,2,2,0,2,31628,50000,7244,47204,0,78,37,0,0.00,0.00,0.00,0.00
2014-10-28 06:50:00,2,9198,78,0.07,2,2,0,2,3501,18308,5005,7860,78,78,0,78,0.00,0.10,0.04,0.08
2014-10-28 07:00:00,2,4946,77,0.04,2,2,0,2,4076,5974,521,4828,77,77,0,77,0.00,0.05,0.02,0.05
2014-10-28 07:10:00,2,5113,78,0.07,2,2,0,2,4199,6082,715,4970,77,78,0,78,0.05,0.10,0.02,0.05
2014-10-28 07:20:00,2,4372,75,0.11,2,2,0,2,4114,4775,237,4339,71,78,3,77,0.05,0.15,0.03,0.10
2014-10-28 07:30:00,2,7801,78,0.07,2,2,0,2,5280,9473,1380,7979,77,78,0,78,0.05,0.15,0.03,0.05
2014-10-28 07:40:00,2,5140,72,0.32,2,2,0,2,4211,6294,677,4988,71,78,2,71,0.10,0.55,0.13,0.35
2014-10-28 07:50:00,2,4506,74,0.21,2,2,0,2,3662,5646,677,4335,71,77,3,74,0.10,0.50,0.13,0.15
2014-10-28 08:00:00,2,3710,71,0.44,2,2,0,2,3329,4105,254,3737,71,71,0,71,0.30,0.65,0.12,0.42
2014-10-28 08:10:00,2,4039,71,0.66,2,2,0,2,2955,4781,538,4276,71,71,0,71,0.25,1.90,0.47,0.60
2014-10-28 08:20:00,2,2372,71,2.64,2,2,0,2,1938,3083,373,2288,71,71,0,71,1.70,3.65,0.53,2.58
2014-10-28 08:30:00,2,2097,71,3.01,2,2,0,2,1907,2240,90,2109,71,71,0,71,2.50,3.90,0.42,2.88
2014-10-28 08:40:00,2,3410,71,1.73,2,2,0,2,2397,4277,753,3784,71,71,0,71,1.10,3.55,0.83,1.40
2014-10-28 08:50:00,2,2809,71,1.43,2,2,0,2,2138,3992,603,2662,71,71,0,71,0.30,2.45,0.53,1.43
2014-10-28 09:00:00,2,2980,71,0.80,2,2,0,2,1528,4673,1076,2807,71,71,0,71,0.20,2.50,0.71,0.50
2014-10-28 09:10:00,2,4450,71,0.40,2,2,0,2,3080,6293,1154,4378,71,71,0,71,0.15,0.95,0.28,0.25
2014-10-28 09:20:00,2,8915,74,0.12,2,2,0,2,6640,12092,2055,8684,71,77,3,74,0.00,0.35,0.11,0.08
2014-10-28 09:30:00,2,8316,72,0.09,2,2,0,2,6699,10035,1079,8284,71,77,2,71,0.05,0.20,0.05,0.05
2014-10-28 09:40:00,2,14484,75,0.08,2,2,0,2,10080,19128,2855,13804,71,77,3,77,0.00,0.30,0.08,0.05
2014-10-28 09:50:00,2,19369,71,0.04,2,2,0,2,12356,31922,5720,18596,71,71,0,71,0.00,0.20,0.06,0.05
2014-10-28 10:00:00,2,28617,76,0.02,2,2,0,2,18386,41245,6432,27482,71,77,2,77,0.00,0.05,0.02,0.00
2014-10-28 10:10:00,2,29817,77,0.00,2,2,0,2,17773,41405,7728,31546,77,77,0,77,0.00,0.00,0.00,0.00
2014-10-28 10:20:00,2,17220,76,0.05,2,2,0,2,9540,30729,5941,16047,71,77,2,77,0.00,0.10,0.03,0.05
2014-10-28 10:30:00,2,34203,73,0.05,2,2,0,2,19384,50000,11891,30207,71,77,3,71,0.00,0.10,0.05,0.05
2014-10-28 10:40:00,2,43696,77,0.00,2,2,0,2,28601,50000,7145,46842,77,77,0,77,0.00,0.00,0.00,0.00
2014-10-28 10:50:00,2,30651,78,0.04,2,2,0,2,24500,44020,5989,29400,77,78,0,78,0.00,0.10,0.03,0.05
2014-10-28 11:00:00,2,42583,78,0.01,2,2,0,2,29426,50000,6590,44100,77,78,0,78,0.00,0.05,0.02,0.00
2014-10-28 11:10:00,2,44324,77,0.01,2,2,0,2,32770,50000,6613,48433,77,78,0,77,0.00,0.05,0.02,0.00
2014-10-28 11:20:00,2,49614,23,0.00,2,2,0,2,47684,50000,791,50000,0,77,35,0,0.00,0.00,0.00,0.00
2014-10-28 11:30:00,2,49973,0,0.00,2,2,0,2,49729,50000,81,50000,0,0,0,0,0.00,0.00,0.00,0.00
2014-10-28 11:40:00,2,17066,0,0.00,2,2,0,2,7138,50000,11972,13878,0,0,0,0,0.00,0.00,0.00,0.00
2014-10-28 11:50:00,2,21088,0,0.00,2,2,0,2,14970,27653,4078,20284,0,0,0,0,0.00,0.00,0.00,0.00
2014-10-28 12:00:00,2,20238,0,0.00,2,2,0,2,10385,27763,4449,20612,0,0,0,0,0.00,0.00,0.00,0.00
2014-10-28 12:10:00,2,18502,0,0.00,2,2,0,2,7707,26911,5834,20632,0,0,0,0,0.00,0.00,0.00,0.00
2014-10-28 12:20:00,2,22833,30,0.00,2,2,0,2,14771,30648,4363,23226,0,77,36,0,0.00,0.00,0.00,0.00
2014-10-28 12:30:00,2,17131,77,0.01,2,2,0,2,9881,21300,3344,17245,77,77,0,77,0.00,0.05,0.02,0.00
2014-10-28 12:40:00,2,19891,77,0.00,2,2,0,2,14953,28844,3627,19403,77,77,0,77,0.00,0.00,0.00,0.00
2014-10-28 12:50:00,2,15468,77,0.01,2,2,0,2,5221,30478,6354,15441,77,77,0,77,0.00,0.05,0.02,0.00
2014-10-28 13:00:00,2,16182,77,0.00,2,2,0,2,9178,22282,3645,16346,77,77,0,77,0.00,0.00,0.00,0.00
2014-10-28 13:10:00,2,22206,15,0.00,2,2,0,2,14864,34213,5075,21476,0,77,31,0,0.00,0.00,0.00,0.00
2014-10-28 13:20:00,2,17405,0,0.00,2,2,0,2,10208,24272,3781,16953,0,0,0,0,0.00,0.00,0.00,0.00
2014-10-28 13:30:00,2,26106,0,0.00,2,2,0,2,11869,37313,8298,26192,0,0,0,0,0.00,0.00,0.00,0.00
2014-10-28 13:40:00,2,24349,0,0.00,2,2,0,2,16206,31040,5091,23884,0,0,0,0,0.00,0.00,0.00,0.00
2014-10-28 13:50:00,2,19773,0,0.00,2,2,0,2,14365,28619,4700,18781,0,0,0,0,0.00,0.00,0.00,0.00
2014-10-28 14:00:00,2,21933,0,0.00,2,2,0,2,14432,27509,3416,22084,0,0,0,0,0.00,0.00,0.00,0.00
2014-10-28 14:10:00,2,22627,0,0.00,2,2,0,2,13846,29560,4985,22378,0,0,0,0,0.00,0.00,0.00,0.00
2014-10-28 14:20:00,2,26154,0,0.00,2,2,0,2,13517,35049,6938,27277,0,0,0,0,0.00,0.00,0.00,0.00
2014-10-28 14:30:00,2,38260,0,0.00,2,2,0,2,33738,45296,3642,38208,0,0,0,0,0.00,0.00,0.00,0.00
2014-10-28 14:40:00,2,40145,0,0.00,2,2,0,2,28662,50000,8687,40922,0,0,0,0,0.00,0.00,0.00,0.00
2014-10-28 14:50:00,2,40932,0,0.00,2,2,0,2,30219,50000,7991,44354,0,0,0,0,0.00,0.00,0.00,0.00
2014-10-28 15:00:00,2,29637,0,0.00,2,2,0,2,19460,42135,9136,26148,0,0,0,0,0.00,0.00,0.00,0.00
2014-10-28 15:10:00,2,19426,0,0.00,2,2,0,2,12727,30794,5376,17580,0,0,0,0,0.00,0.00,0.00,0.00
2014-10-28 15:20:00,2,24334,0,0.00,2,2,0,2,16587,33028,5769,23263,0,0,0,0,0.00,0.00,0.00,0.00
2014-10-28 15:30:00,2,35504,0,0.00,2,2,0,2,24530,49831,8419,35500,0,0,0,0,0.00,0.00,0.00,0.00
2014-10-28 15:40:00,2,49855,0,0.00,2,2,0,2,48549,50000,435,50000,0,0,0,0,0.00,0.00,0.00,0.00
2014-10-28 15:50:00,2,49010,0,0.00,2,2,0,2,45248,50000,1457,49772,0,0,0,0,0.00,0.00,0.00,0.00
2014-10-28 16:00:00,2,49472,0,0.00,2,2,0,2,47013,50000,892,50000,0,0,0,0,0.00,0.00,0.00,0.00
2014-10-28 16:10:00,2,48545,0,0.00,2,2,0,2,42867,50000,2263,49650,0,0,0,0,0.00,0.00,0.00,0.00
2014-10-28 16:20:00,2,46677,0,0.00,2,2,0,2,43108,50000,2317,46630,0,0,0,0,0.00,0.00,0.00,0.00
2014-10-28 16:30:00,2,42784,0,0.00,2,2,0,2,35371,50000,5125,43374,0,0,0,0,0.00,0.00,0.00,0.00
2014-10-28 16:40:00,2,35676,0,0.00,2,2,0,2,14563,44956,8046,36402,0,0,0,0,0.00,0.00,0.00,0.00
2014-10-28 16:50:00,2,6953,66,0.13,2,2,0,2,4468,11132,1936,6319,0,78,22,71,0.00,0.25,0.10,0.12
2014-10-28 17:00:00,2,22945,73,0.03,2,2,0,2,8465,46073,13159,18992,71,78,3,71,0.00,0.10,0.03,0.00
2014-10-28 17:10:00,2,47831,8,0.00,2,2,0,2,43724,50000,2701,50000,0,78,23,0,0.00,0.00,0.00,0.00
2014-10-28 17:20:00,2,43470,0,0.00,2,2,0,2,33553,50000,5506,44938,0,0,0,0,0.00,0.00,0.00,0.00
2014-10-28 17:30:00,2,46178,0,0.00,2,2,0,2,39446,50000,3609,47780,0,0,0,0,0.00,0.00,0.00,0.00
2014-10-28 17:40:00,2,47875,0,0.00,2,2,0,2,41538,50000,3248,50000,0,0,0,0,0.00,0.00,0.00,0.00
2014-10-28 17:50:00,2,39523,0,0.00,2,2,0,2,34508,44631,3089,40136,0,0,0,0,0.00,0.00,0.00,0.00
2014-10-28 18:00:00,2,44335,0,0.00,2,2,0,2,38978,47724,2742,45258,0,0,0,0,0.00,0.00,0.00,0.00
2014-10-28 18:10:00,2,47008,0,0.00,2,2,0,2,39206,50000,4037,49286,0,0,0,0,0.00,0.00,0.00,0.00
2014-10-28 18:20:00,2,35420,0,0.00,2,2,0,2,28713,43778,4605,36074,0,0,0,0,0.00,0.00,0.00,0.00
2014-10-28 18:30:00,2,45969,0,0.00,2,2,0,2,43769,50000,1930,45218,0,0,0,0,0.00,0.00,0.00,0.00
2014-10-28 18:40:00,2,47206,0,0.00,2,2,0,2,42392,50000,2653,47998,0,0,0,0,0.00,0.00,0.00,0.00
2014-10-28 18:50:00,2,49160,0,0.00,2,2,0,2,44800,50000,1731,50000,0,0,0,0,0.00,0.00,0.00,0.00
2014-10-28 19:00:00,2,48178,0,0.00,2,2,0,2,44101,50000,2066,49277,0,0,0,0,0.00,0.00,0.00,0.00
2014-10-28 19:10:00,2,48938,0,0.00,2,2,0,2,43110,50000,2062,49950,0,0,0,0,0.00,0.00,0.00,0.00
2014-10-28 19:20:00,2,46876,0,0.00,2,2,0,2,42799,50000,2225,46382,0,0,0,0,0.00,0.00,0.00,0.00
2014-10-28 19:30:00,2,34169,44,0.01,2,2,0,2,18529,45047,9687,38579,0,78,36,71,0.00,0.05,0.02,0.00
2014-10-28 19:40:00,2,35514,78,0.00,2,2,0,2,23263,44632,6803,35530,78,78,0,78,0.00,0.00,0.00,0.00
2014-10-28 19:50:00,2,25748,75,0.03,2,2,0,2,17488,35581,5853,26394,71,78,3,78,0.00,0.20,0.07,0.00
2014-10-28 20:00:00,2,24317,52,0.02,2,2,0,2,13089,35414,6342,24980,0,78,34,71,0.00,0.10,0.03,0.00
2014-10-28 20:10:00,2,13997,71,0.11,2,2,0,2,8180,21173,4696,13700,71,71,0,71,0.00,0.30,0.10,0.08
2014-10-28 20:20:00,2,8344,71,0.46,2,2,0,2,4443,14653,3577,7182,71,71,0,71,0.05,1.00,0.40,0.30
2014-10-28 20:30:00,2,6164,71,0.47,2,2,0,2,3560,11486,2068,5808,71,71,0,71,0.10,0.70,0.20,0.50
2014-10-28 20:40:00,2,4382,71,1.06,2,2,0,2,2998,6113,1084,4282,71,71,0,71,0.30,1.95,0.58,0.97
2014-10-28 20:50:00,2,4086,71,0.89,2,2,0,2,3430,4899,538,3993,71,71,0,71,0.45,1.50,0.31,0.88
2014-10-28 21:00:00,2,6888,71,0.38,2,2,0,2,4564,9604,1686,7334,71,71,0,71,0.05,1.40,0.39,0.20
2014-10-28 21:10:00,2,7830,75,0.11,2,2,0,2,6243,9161,956,7730,71,77,3,77,0.05,0.20,0.05,0.10
2014-10-28 21:20:00,2,10950,75,0.04,2,2,0,2,7331,13453,2003,11628,71,77,3,77,0.00,0.15,0.06,0.03
2014-10-28 21:30:00,2,7301,74,0.09,2,2,0,2,4083,10239,1823,7156,71,78,3,71,0.00,0.40,0.11,0.05
2014-10-28 21:40:00,2,7024,76,0.07,2,2,0,2,5235,9394,1349,6626,71,78,3,77,0.00,0.25,0.07,0.05
2014-10-28 21:50:00,2,7036,77,0.04,2,2,0,2,4258,9826,1331,7002,77,78,0,77,0.00,0.10,0.03,0.05
2014-10-28 22:00:00,2,7364,78,0.01,2,2,0,2,5745,9211,1192,7689,77,78,0,78,0.00,0.05,0.02,0.00
2014-10-28 22:10:00,2,6197,78,0.02,2,2,0,2,3732,8240,1411,6322,78,78,0,78,0.00,0.10,0.03,0.00
2014-10-28 22:20:00,2,6013,78,0.04,2,2,0,2,4597,7308,909,5984,78,78,0,78,0.00,0.10,0.03,0.05
2014-10-28 22:30:00,2,8022,58,0.00,2,2,0,2,5456,10738,1738,7812,10,78,31,78,0.00,0.00,0.00,0.00
2014-10-28 22:40:00,2,10018,10,0.00,2,2,0,2,6825,14504,2337,9622,10,10,0,10,0.00,0.00,0.00,0.00
2014-10-28 22:50:00,2,10582,10,0.00,2,2,0,2,8597,16755,2334,9796,10,10,0,10,0.00,0.00,0.00,0.00
2014-10-28 23:00:00,2,27866,3,0.00,2,2,0,2,16212,43401,7726,27246,0,10,5,0,0.00,0.00,0.00,0.00
2014-10-28 23:10:00,2,27417,0,0.00,2,2,0,2,12598,48006,13375,23732,0,0,0,0,0.00,0.00,0.00,0.00
2014-10-28 23:20:00,2,13940,76,0.00,2,2,0,2,11024,17134,2186,13845,71,77,2,77,0.00,0.00,0.00,0.00
2014-10-28 23:30:00,2,23206,78,0.00,2,2,0,2,17124,31898,4566,23194,77,78,0,78,0.00,0.00,0.00,0.00
2014-10-28 23:40:00,2,45895,8,0.00,2,2,0,2,37680,50000,4169,46546,0,78,23,0,0.00,0.00,0.00,0.00
2014-10-28 23:50:00,2,47789,0,0.00,2,2,0,2,41103,50000,3079,49472,0,0,0,0,0.00,0.00,0.00,0.00
